Total_Precipitation_Accumulation
1.01 0.95 0.91 0.87 0.83 0.82 0.79 0.75 0.71 0.64 0.57 0.54 0.49 0.42 0.39 0.34 0.31 0.27 0.22 0.22 0.22 0.27 0.41 0.64 0.91 1.15 1.35 1.52 1.63 1.53 1.48 1.35 1.09 0.93 0.91 0.99 1.05 1.12 1.14 1.20 1.20 1.10 1.10
1.00 0.96 0.91 0.88 0.82 0.79 0.79 0.76 0.72 0.67 0.57 0.51 0.45 0.42 0.40 0.38 0.36 0.33 0.29 0.28 0.27 0.28 0.35 0.50 0.70 1.02 1.29 1.47 1.66 1.78 1.65 1.62 1.48 1.19 1.02 0.99 1.03 1.08 1.13 1.21 1.28 1.26 1.19
0.97 0.99 0.96 0.90 0.81 0.75 0.75 0.77 0.79 0.79 0.72 0.61 0.53 0.47 0.42 0.39 0.37 0.34 0.33 0.33 0.32 0.32 0.35 0.43 0.54 0.76 1.10 1.41 1.60 1.84 1.89 1.74 1.76 1.65 1.38 1.17 1.11 1.11 1.17 1.23 1.30 1.37 1.34
1.04 1.04 1.02 0.96 0.88 0.83 0.78 0.73 0.73 0.74 0.74 0.69 0.63 0.58 0.51 0.45 0.38 0.33 0.30 0.30 0.35 0.36 0.36 0.40 0.47 0.60 0.88 1.23 1.57 1.82 2.21 2.08 1.96 2.02 1.97 1.63 1.35 1.26 1.28 1.34 1.40 1.47 1.50
1.10 1.09 1.06 1.02 0.96 0.94 0.89 0.82 0.76 0.69 0.65 0.63 0.60 0.57 0.53 0.51 0.50 0.47 0.40 0.33 0.31 0.35 0.40 0.41 0.45 0.49 0.66 0.99 1.35 1.71 2.22 2.57 2.40 2.31 2.37 2.26 1.89 1.60 1.50 1.54 1.59 1.62 1.70
1.20 1.14 1.10 1.05 1.03 0.99 0.94 0.88 0.81 0.73 0.64 0.61 0.62 0.61 0.54 0.49 0.47 0.45 0.44 0.40 0.34 0.32 0.40 0.46 0.48 0.44 0.48 0.65 0.97 1.43 1.92 2.45 2.72 2.61 2.56 2.62 2.48 2.18 1.94 1.83 1.81 1.87 1.93
1.32 1.26 1.19 1.13 1.09 1.03 0.94 0.87 0.84 0.83 0.78 0.74 0.77 0.73 0.63 0.53 0.49 0.46 0.44 0.43 0.38 0.34 0.36 0.45 0.52 0.49 0.43 0.47 0.60 0.88 1.41 2.11 2.72 2.97 2.93 2.84 2.82 2.63 2.36 2.15 2.02 2.08 2.18
1.41 1.35 1.25 1.21 1.18 1.12 1.04 0.96 0.91 0.90 0.85 0.83 0.87 0.91 0.80 0.68 0.55 0.45 0.43 0.41 0.38 0.37 0.39 0.40 0.49 0.54 0.51 0.46 0.42 0.54 0.84 1.46 2.25 2.89 3.22 3.28 3.22 3.13 2.85 2.55 2.34 2.31 2.41
1.37 1.34 1.26 1.20 1.22 1.21 1.13 1.02 0.94 0.90 0.86 0.76 0.74 0.95 0.98 0.74 0.51 0.42 0.40 0.40 0.39 0.39 0.39 0.40 0.44 0.50 0.56 0.55 0.50 0.51 0.59 0.94 1.62 2.44 3.06 3.40 3.54 3.69 3.55 3.10 2.79 2.65 2.66
1.30 1.27 1.29 1.25 1.19 1.16 1.10 1.04 0.98 0.91 0.88 0.83 0.76 0.73 0.77 0.74 0.72 0.53 0.37 0.36 0.38 0.41 0.42 0.42 0.43 0.47 0.54 0.60 0.61 0.63 0.64 0.73 1.17 1.81 2.58 3.24 3.64 3.96 4.18 3.77 3.25 3.00 2.92
1.37 1.32 1.29 1.32 1.28 1.20 1.13 1.09 1.07 1.03 0.97 0.91 0.83 0.74 0.68 0.61 0.61 0.71 0.51 0.37 0.38 0.39 0.42 0.47 0.48 0.51 0.54 0.60 0.64 0.67 0.75 0.77 1.01 1.43 1.99 2.78 3.48 4.09 4.61 4.44 3.72 3.21 3.01
1.40 1.29 1.25 1.24 1.23 1.17 1.09 1.06 1.07 1.10 1.07 0.97 0.87 0.79 0.79 0.76 0.65 0.69 0.64 0.46 0.43 0.41 0.43 0.49 0.55 0.57 0.58 0.61 0.64 0.74 0.80 0.86 0.96 1.18 1.49 2.05 2.79 3.52 4.39 4.73 4.17 3.50 3.11
1.38 1.28 1.18 1.12 1.08 1.06 1.06 1.04 1.04 1.03 1.02 1.04 0.97 0.88 0.81 0.74 0.70 0.76 0.81 0.69 0.59 0.50 0.49 0.51 0.53 0.60 0.64 0.66 0.68 0.75 0.76 0.86 0.97 1.11 1.24 1.47 1.95 2.72 3.65 4.61 4.84 4.13 3.53
1.25 1.24 1.22 1.14 1.02 0.97 0.99 1.04 1.03 1.01 1.00 1.03 0.97 0.92 0.86 0.75 0.76 0.84 0.93 1.03 0.98 0.70 0.59 0.55 0.52 0.56 0.64 0.71 0.74 0.78 0.72 0.85 0.97 1.08 1.18 1.28 1.46 1.93 2.79 3.83 4.84 4.90 4.19
1.23 1.26 1.24 1.23 1.16 1.07 1.00 1.01 1.02 0.99 1.03 1.02 1.00 0.98 0.99 0.89 0.85 0.86 0.91 1.09 1.37 1.20 0.73 0.55 0.54 0.58 0.65 0.75 0.84 0.82 0.78 0.84 0.93 1.07 1.21 1.29 1.36 1.58 1.99 2.67 3.62 4.61 4.81
1.16 1.27 1.32 1.27 1.29 1.26 1.18 1.09 1.03 1.00 1.05 1.05 1.06 1.08 1.06 1.03 1.02 0.97 0.97 1.03 1.19 1.33 1.02 0.53 0.48 0.54 0.67 0.79 0.93 0.94 0.94 1.02 1.00 1.08 1.17 1.25 1.29 1.41 1.63 2.02 2.62 3.53 4.44
1.07 1.15 1.26 1.28 1.30 1.32 1.29 1.24 1.15 1.11 1.10 1.08 1.11 1.17 1.14 1.10 1.16 1.11 1.05 1.02 1.06 1.19 1.21 0.66 0.49 0.52 0.73 0.93 0.99 1.03 1.07 1.03 0.99 1.06 1.13 1.20 1.25 1.33 1.51 1.75 2.10 2.67 3.54
1.09 1.11 1.23 1.35 1.35 1.33 1.31 1.30 1.26 1.26 1.30 1.24 1.17 1.18 1.20 1.20 1.23 1.21 1.20 1.12 1.02 1.00 1.12 0.93 0.65 0.64 0.77 0.96 1.02 1.07 1.14 1.13 1.06 1.12 1.16 1.25 1.33 1.41 1.53 1.67 1.88 2.16 2.78
1.16 1.13 1.19 1.35 1.41 1.41 1.37 1.30 1.30 1.34 1.41 1.47 1.43 1.39 1.32 1.31 1.32 1.26 1.27 1.23 1.13 1.04 1.04 1.06 0.86 0.75 0.82 0.93 1.07 1.16 1.20 1.20 1.21 1.26 1.21 1.24 1.36 1.47 1.55 1.62 1.74 1.93 2.20
1.20 1.19 1.19 1.26 1.38 1.48 1.54 1.53 1.54 1.49 1.49 1.52 1.53 1.54 1.50 1.49 1.44 1.39 1.40 1.35 1.32 1.33 1.28 1.27 1.12 0.95 0.91 0.95 1.14 1.34 1.43 1.30 1.29 1.29 1.32 1.29 1.37 1.45 1.53 1.51 1.47 1.62 1.87
1.26 1.24 1.23 1.20 1.27 1.53 1.87 1.84 1.73 1.65 1.53 1.44 1.38 1.38 1.44 1.60 1.66 1.73 1.76 1.66 1.63 1.74 1.70 1.62 1.42 1.23 1.11 1.16 1.28 1.37 1.60 1.55 1.46 1.38 1.40 1.33 1.33 1.32 1.34 1.41 1.45 1.57 1.75
1.36 1.30 1.25 1.22 1.25 1.46 1.95 2.01 1.70 1.46 1.33 1.30 1.29 1.20 1.19 1.38 1.48 1.62 1.77 1.79 1.86 2.02 2.11 2.03 1.76 1.50 1.24 1.19 1.32 1.54 1.75 1.93 1.86 1.48 1.50 1.54 1.48 1.50 1.40 1.36 1.46 1.53 1.67
1.38 1.34 1.25 1.19 1.15 1.24 1.67 1.78 1.58 1.29 1.14 1.11 1.12 1.11 1.08 1.12 1.25 1.21 1.39 1.50 1.57 1.75 1.98 2.09 2.06 1.63 1.37 1.27 1.55 1.76 1.81 1.94 1.84 1.61 1.70 1.92 1.73 1.65 1.52 1.48 1.51 1.43 1.51
1.40 1.34 1.26 1.19 1.15 1.11 1.47 1.66 1.54 1.17 1.01 0.94 0.93 0.92 0.92 0.96 1.08 1.25 1.35 1.36 1.28 1.37 1.65 1.86 2.03 1.85 1.65 1.60 1.86 2.15 2.27 2.29 2.08 1.86 1.83 2.19 1.99 1.83 1.73 1.61 1.52 1.37 1.39
1.30 1.28 1.22 1.12 1.08 1.06 1.29 1.61 1.61 1.22 1.04 0.91 0.88 0.87 0.84 0.84 1.12 1.38 1.35 1.27 1.14 1.15 1.34 1.64 1.86 1.96 2.03 2.15 2.32 2.61 2.79 2.75 2.58 2.21 1.98 2.16 2.19 2.08 1.94 1.83 1.64 1.44 1.32
1.22 1.22 1.20 1.11 1.05 1.01 1.18 1.57 1.76 1.30 1.12 0.99 0.91 0.87 0.98 1.02 1.24 1.35 1.26 1.29 1.31 1.17 1.13 1.21 1.32 1.44 1.53 1.69 2.04 2.32 2.57 2.72 2.68 2.61 2.16 2.11 2.24 2.30 2.53 2.12 1.70 1.38 1.24